Location: Lancaster
(34.6980°N, 118.1360°W)
Time: 06:12:21
(UTC-08:00)

Vanguard 3 - All Passes

Search period start: 19 November 2017 00:00
Search period end: 29 November 2017 00:00
Orbit: 509 x 3263 km, 33.4° (Epoch: 18 November)

Date Brightness Start Highest point End Pass type
(mag) Time Alt. Az. Time Alt. Az. Time Alt. Az.
19 Nov - 02:01:06 10° W 02:18:12 41° SW 02:34:15 10° SSE visible
19 Nov - 04:26:18 10° WSW 04:31:51 12° SW 04:37:04 10° SW visible
19 Nov - 16:01:42 10° SSE 16:04:30 12° SE 16:07:48 10° ESE daylight
19 Nov - 18:07:10 10° SW 18:15:06 51° SSE 18:28:56 10° E visible
19 Nov - 20:17:52 10° WSW 20:28:58 83° S 20:47:33 10° E visible
19 Nov - 22:30:29 10° W 22:45:19 80° SSW 23:05:34 10° ESE visible
20 Nov - 00:44:46 10° W 01:01:59 54° SSW 01:20:20 10° SE visible
20 Nov - 03:03:13 10° W 03:16:51 24° SW 03:29:24 10° S visible
20 Nov - 16:55:19 10° SSW 17:01:26 30° SE 17:11:10 10° E visible
20 Nov - 19:04:32 10° WSW 19:13:35 73° SSE 19:29:46 10° E visible
20 Nov - 21:16:15 10° W 21:28:46 85° S 21:48:21 10° E visible
20 Nov - 23:29:26 10° W 23:45:21 67° SSW 00:05:06 10° SE visible
21 Nov - 01:45:05 10° W 02:01:14 37° SW 02:17:19 10° SSE visible
21 Nov - 15:45:22 10° SSE 15:48:30 13° SE 15:52:19 10° ESE daylight
21 Nov - 17:51:48 10° SW 17:59:06 55° SSE 18:12:08 10° E visible
21 Nov - 20:02:32 10° W 20:12:48 84° S 20:30:38 10° E visible
21 Nov - 22:14:51 10° W 22:28:44 77° SSW 22:48:44 10° ESE visible
22 Nov - 00:28:50 10° W 00:45:04 50° SSW 01:03:27 10° SE visible
22 Nov - 02:47:45 10° W 02:59:58 20° SW 03:11:47 10° S visible
22 Nov - 16:39:49 10° SSW 16:45:31 33° SE 16:54:42 10° E daylight
22 Nov - 18:49:16 10° WSW 18:57:37 76° SSE 19:12:52 10° E visible
22 Nov - 21:00:49 10° W 21:12:28 84° S 21:31:28 10° ESE visible
22 Nov - 23:13:41 10° W 23:28:36 62° SSW 23:48:12 10° SE visible
23 Nov - 01:29:18 10° W 01:44:18 32° SW 02:00:05 10° SSE visible
23 Nov - 15:29:20 10° SSE 15:32:35 15° SE 15:36:42 10° E daylight
23 Nov - 17:36:31 10° SW 17:43:15 58° SSE 17:55:25 10° E visible
23 Nov - 19:47:15 10° W 19:56:46 85° S 20:13:43 10° E visible
23 Nov - 21:59:18 10° W 22:12:14 73° SSW 22:31:47 10° ESE visible
24 Nov - 00:13:04 10° W 00:28:13 45° SSW 00:46:19 10° SSE visible
24 Nov - 02:32:49 10° WSW 02:43:11 17° SW 02:53:35 10° SSW visible
24 Nov - 16:24:24 10° SSW 16:29:41 35° SE 16:38:19 10° E daylight
24 Nov - 18:34:04 10° WSW 18:41:46 79° S 18:56:01 10° E visible
24 Nov - 20:45:27 10° W 20:56:14 81° S 21:14:30 10° ESE visible
24 Nov - 22:58:03 10° W 23:11:56 57° SSW 23:31:06 10° SE visible
25 Nov - 01:13:47 10° W 01:27:28 28° SW 01:42:31 10° S visible
25 Nov - 15:13:30 10° S 15:16:46 16° SE 15:21:00 10° E daylight
25 Nov - 17:21:19 10° WSW 17:27:30 62° SSE 17:38:45 10° E visible
25 Nov - 19:32:01 10° W 19:40:49 85° S 19:56:48 10° E visible
25 Nov - 21:43:49 10° W 21:55:49 69° SSW 22:14:43 10° ESE visible
25 Nov - 23:57:28 10° W 00:11:28 40° SSW 00:28:57 10° SSE visible
26 Nov - 02:18:46 10° WSW 02:26:29 14° SW 02:34:26 10° SSW visible
26 Nov - 16:09:05 10° SW 16:13:59 38° SSE 16:22:00 10° E daylight
26 Nov - 18:18:56 10° WSW 18:26:01 81° S 18:39:14 10° E visible
26 Nov - 20:30:08 10° W 20:40:07 78° S 20:57:29 10° ESE visible
26 Nov - 22:42:32 10° W 22:55:22 52° SSW 23:13:48 10° SE visible
27 Nov - 00:58:34 10° W 01:10:45 24° SW 01:24:34 10° S visible
27 Nov - 14:57:47 10° S 15:01:02 18° SE 15:05:19 10° E daylight
27 Nov - 17:06:09 10° WSW 17:11:53 66° SSE 17:22:11 10° E visible
27 Nov - 19:16:50 10° W 19:24:56 83° S 19:39:54 10° E visible
27 Nov - 21:28:25 10° W 21:39:30 63° SSW 21:57:31 10° SE visible
27 Nov - 23:42:04 10° W 23:54:50 34° SSW 00:11:17 10° SSE visible
28 Nov - 02:07:42 10° SW 02:09:57 10° SW 02:12:15 10° SW visible
28 Nov - 15:53:48 10° SW 15:58:22 42° SSE 16:05:47 10° E daylight
28 Nov - 18:03:49 10° W 18:10:21 82° S 18:22:31 10° E visible
28 Nov - 20:14:53 10° W 20:24:05 74° SSW 20:40:26 10° ESE visible
28 Nov - 22:27:09 10° W 22:38:56 46° SSW 22:56:19 10° SE visible
